Regional Weather Roundup
Issued by NWS

Home | Current Version | Previous Version | Text Only | Print | Product List | Glossary Off
Versions: 1 2 3 4 5 6 7 8 9 10 11 12 13 14 15 16 17 18 19 20 21 22 23 24 25 26 27 28 29 30 31 32 33 34 35 36 37 38 39 40 41 42 43 44 45 46 47 48 49 50

894
ASUS43 KMKX 251521
RWRWI

WISCONSIN REGIONAL WEATHER ROUNDUP
NATIONAL WEATHER SERVICE MILWAUKEE/SULLIVAN WI
1000 AM CDT WED MAY 25 2016

NOTE: "FAIR" INDICATES FEW OR NO CLOUDS BELOW 12,000 FEET WITH NO
SIGNIFICANT WEATHER AND/OR OBSTRUCTIONS TO VISIBILITY.

WIZ001-002-006>008-014>016-023>028-251600-
NORTHWEST WISCONSIN

CITY           SKY/WX    TMP DP  RH WIND       PRES   REMARKS
SUPERIOR ARPT  FOG       45  45 100 NE13G18   30.04S VSB 1/2
ASHLAND        CLOUDY    52  52 100 N9        30.04F FOG
HAYWARD        CLOUDY    64  56  75 E6        29.99F
SIREN          CLOUDY    64  57  80 E6        29.95F
CUMBERLAND     MOSUNNY   72  55  56 SE13G18   29.95F
RICE LAKE      MOSUNNY   73  57  57 E13       29.96F
CHETEK         MOSUNNY   72  62  69 SE6       29.95F
LADYSMITH      MOSUNNY   70  61  72 E10       30.00S
EAU CLAIRE     MOSUNNY   75  59  57 SE12      29.93F
MENOMONIE      PTSUNNY   75  61  62 E10       29.93F
NEW RICHMOND   CLOUDY    73  57  58 SE9       29.93R
OSCEOLA        CLOUDY    73  59  62 SE10      29.94S
$$

WIZ003>005-009-010-017-018-251600-
NORTH CENTRAL WISCONSIN

CITY           SKY/WX    TMP DP  RH WIND       PRES   REMARKS
MANITOWISH WTR NOT AVBL
ARBOR VITAE    CLOUDY    63  58  83 SE10      30.05S
WOODRUFF       CLOUDY    63  58  83 SE10      30.05S
RHINELANDER    CLOUDY    61  58  90 E8        30.06S
EAGLE RIVER      N/A     58  58 100 E9        30.06F
LAND O LAKES   CLOUDY    58  58 100 E8        30.07F
PHILLIPS       PTSUNNY   62  57  84 E7        30.02F
TOMAHAWK       CLOUDY    61  60  96 E6        30.04S
MEDFORD        MOSUNNY   67  62  83 E8        30.01S
MERRILL        CLOUDY    63  61  94 E7        30.04F
$$

WIZ029-030-035-036-043>047-251600-
CENTRAL WISCONSIN

CITY           SKY/WX    TMP DP  RH WIND       PRES   REMARKS
WAUSAU         CLOUDY    65  58  78 E12       30.01F
MOSINEE        CLOUDY    61  59  94 E12       30.03F
MARSHFIELD     CLOUDY    72  60  66 E13       29.98F
STEVENS POINT  CLOUDY    60  56  87 E10       30.02F
WAUPACA        CLOUDY    62  60  91 E10       30.03F
WAUTOMA        MOSUNNY   69  59  70 NE12      30.00F
WISC RAPIDS    CLOUDY    70  57  63 E13       30.00F
CAMP DOUGLAS   CLOUDY    75  70  83 E13       29.95F
$$

WIZ011>013-019>022-031-037>040-048>050-251600-
NORTHEAST WISCONSIN

CITY           SKY/WX    TMP DP  RH WIND       PRES   REMARKS
ANTIGO         CLOUDY    57  57 100 E12       30.06S
SHAWANO        CLOUDY    63  59  87 E9        30.06S
OCONTO         CLOUDY    61  61 100 SE6       30.06S
STURGEON BAY   NOT AVBL
GREEN BAY      CLOUDY    60  56  86 NE10      30.04F
MANITOWOC      MOSUNNY   61  55  82 NE9       30.04F
APPLETON       CLOUDY    61  57  88 NE12      30.02F
CLINTONVILLE   CLOUDY    59  57  94 E8        30.04F
OSHKOSH        CLOUDY    62  57  83 NE12      30.02S
$$

WIZ032>034-041-042-053>061-251600-
SOUTHWEST WISCONSIN

CITY           SKY/WX    TMP DP  RH WIND       PRES   REMARKS
LA CROSSE      CLOUDY    73  61  65 S9        29.95R
SPARTA         CLOUDY    76  60  56 SE12      29.95S
VIROQUA        CLOUDY    70  62  76 S6        29.98R
BOSCOBEL       CLOUDY    73  64  73 CALM      29.96S
PRAIRIE DU CHI CLOUDY    69  62  78 CALM      29.95F
PLATTEVILLE    CLOUDY    75  65  69 SE12      29.97F
$$

WIZ056-057-062-063-064-067-068-251600-
SOUTH CENTRAL WISCONSIN

CITY           SKY/WX    TMP DP  RH WIND       PRES   REMARKS
REEDSBURG      CLOUDY    74  64  70 S8        29.97S
BARABOO/DELLS  CLOUDY    76  60  57 SE8       29.97S
LONE ROCK      CLOUDY    73  63  70 CALM      29.97S
MINERAL POINT  CLOUDY    75  64  69 SE7       29.98F
MADISON        CLOUDY    75  65  70 S8        29.98S
MIDDLETON      CLOUDY    77  63  61 S9        29.99S
WATERTOWN      PTSUNNY   76  65  70 S8        29.99R
MONROE         PTSUNNY   75  63  64 S7        29.98S
JANESVILLE     SUNNY     79  64  61 S8        29.98S HX  81
$$

WIZ051-052-058>065-066-070>072-251600-
SOUTHEAST WISCONSIN

CITY           SKY/WX    TMP DP  RH WIND       PRES   REMARKS
MILWAUKEE      CLOUDY    59  52  77 N12       30.02R
WAUKESHA       SUNNY     73  64  73 NE7       30.02R
MILWAUKEE/TIMM SUNNY     63  52  67 NE9       30.03R
RACINE         CLOUDY    75  62  64 E7        30.02S
BURLINGTON     CLOUDY    77  61  58 CALM      29.99F
KENOSHA        CLOUDY    79  65  62 S5        30.00F HX  81
FOND DU LAC    MOSUNNY   72  61  68 NE12      30.01S
SHEBOYGAN      SUNNY     60  54  80 NE20      30.04F
WEST BEND      CLOUDY    68  59  73 E7        30.02S
JUNEAU         CLOUDY    77  63  62 E10       30.00S
$$

LSZ147-162-251600-
LAKE SUPERIOR

STATION/POSITION TIME  TEMP    WIND        PRES    WAVE
                       AIR SEA DIR/SP/G            HT/PER
                 (UTC) (F)     (DEG/KT/KT) (MB)    (FT/S)
W MID LAKE BUOY  1450   40 38   60/ 14/ 16 1019.1F   2/ 3
DEVILS ISLAND    1500   44      60/ 21/ 23 1018.2F
PORT WING        1400   43      30/ 13/ 16 1017.3S
SAXON HARBOR     1440   47      10/  2/  3 1016.9S
$$

LMZ867-665-643>646-251600-
LAKE MICHIGAN

STATION/POSITION TIME  TEMP    WIND        PRES    WAVE
                       AIR SEA DIR/SP/G            HT/PER
                 (UTC) (F)     (DEG/KT/KT) (MB)    (FT/S)
CHAMBERS ISLAND  1440   54      20/  6/  8 1018.3R
N MID LAKE BUOY  1450   48 45  340/  6/  8 1018.5R   1
NORTHPORT PIER   1400   52     310/  3/  5 1018.3R
SISTER BAY       1419   55     360/  8/  9   N/A
ALGOMA LAKESHORE 1417           60/ 11/ 13   N/A
KEWAUNEE LAKESHO 1412   53      20/  5/  7 1017.2R
SHEBOYGAN LAKESH 1500   49     360/  9/  9 1018.0R
PORT WASHINGTON  1440   56      50/ 14/ 19 1017.6R
S MID LAKE BUOY  1450   54 49  150/  6/  6 1016.2F   1
KENOSHA   LAKESH 1500   63     160/  8/  9 1015.6F
$$

TC  - TEMPERATURE IN CELSIUS
VSB - VISIBILITY IN STATUTE MILES
WCI - WIND CHILL INDEX
HX  - HEAT INDEX





USA.gov is the U.S. government's official web portal to all federal, state and local government web resources and services.